Date String (YYYY-MM-DD hh:mm:ss) UTC,Instrument flags,absolute air pressure of the measurement (hPa),sample flow rate (lpm),inlet stack bypass flow (lpm),air temperature of the measurement (°C),ambient temperature measured by the external sensor (°C),aerosol sample conditioner tube jacket temperature (°C),OPC LED temperature (°C),internal box temperature (°C),relative humidity of the measurement (%),span deviation,mass concentration of particles derived from Lorenz-Mie calculation of OPC scattering (μg/m³),mass concentration of particles derived from Lorenz-Mie calculation of OPC scattering (μg/m³),mass concentration of particles derived from Lorenz-Mie calculation of OPC scattering (μg/m³)
DateTimeUTC,F1_M11,P_M11,Q1_M11,Q2_M11,T1_M11,T2_M11,T3_M11,T4_M11,T5_M11,U1_M11,ZSPAN_M11,X2_M11,X0_M11,X1_M11
2024-03-09 14:00:00,SystemResetWarning,0832.3,4.98,000.00,019.1,019.6,000.0,027.5,021.5,12.2,0000.0,0001.22,0003.07,0001.04
2024-03-09 14:01:00,SystemResetWarning,0832.2,4.99,000.00,019.1,019.4,000.0,027.5,021.2,12.1,0000.0,0001.24,0002.62,0001.04
2024-03-09 14:02:00,SystemResetWarning,0832.2,5.01,000.00,019.0,018.9,000.0,027.4,020.8,12.1,0000.0,0001.25,0002.45,0001.03
2024-03-09 14:03:00,SystemResetWarning,0832.2,5.00,000.00,018.9,018.4,000.0,027.4,020.5,12.0,0000.0,0001.20,0002.41,0001.01
2024-03-09 14:04:00,SystemResetWarning,0832.2,5.00,000.00,018.8,018.0,000.0,027.4,020.2,11.9,0000.0,0001.17,0002.32,0001.00
2024-03-09 14:05:00,SystemResetWarning,0832.2,5.00,000.00,018.7,017.6,000.0,027.3,020.0,12.0,0000.0,0001.19,0002.36,0000.99
2024-03-09 14:06:00,SystemResetWarning,0832.2,5.00,000.00,018.6,017.2,000.0,027.4,020.0,12.2,0000.0,0001.18,0002.36,0000.99
2024-03-09 14:07:00,SystemResetWarning,0832.2,5.00,000.00,018.5,017.0,000.0,027.4,020.0,12.5,0000.0,0001.21,0002.44,0000.98
2024-03-09 14:08:00,SystemResetWarning,0832.2,5.01,000.00,018.6,017.5,000.0,027.4,020.3,12.4,0000.0,0001.23,0002.52,0000.98
2024-03-09 14:09:00,SystemResetWarning,0832.3,5.01,000.00,018.8,018.7,000.0,027.5,021.0,12.2,0000.0,0001.25,0002.57,0000.97
2024-03-09 14:10:00,SystemResetWarning,0832.3,4.99,000.00,019.1,019.7,000.0,027.5,021.6,12.0,0000.0,0001.26,0002.50,0000.97
2024-03-09 14:11:00,SystemResetWarning,0832.3,4.99,000.00,019.2,019.6,000.0,027.5,021.3,11.9,0000.0,0001.27,0002.47,0000.97
2024-03-09 14:12:00,SystemResetWarning,0832.2,5.01,000.00,019.1,019.2,000.0,027.5,020.9,12.0,0000.0,0001.25,0002.23,0000.97
2024-03-09 14:13:00,SystemResetWarning,0832.2,5.01,000.00,019.0,018.7,000.0,027.5,020.6,12.4,0000.0,0001.26,0002.40,0000.96
2024-03-09 14:14:00,SystemResetWarning,0832.2,5.00,000.00,018.9,018.2,000.0,027.4,020.4,12.6,0000.0,0001.29,0002.42,0000.98
2024-03-09 14:15:00,SystemResetWarning,0832.2,4.99,000.00,018.8,017.9,000.0,027.4,020.2,12.3,0000.0,0001.33,0002.54,0000.98
2024-03-09 14:16:00,SystemResetWarning,0832.2,5.00,000.00,018.7,017.5,000.0,027.4,020.0,12.7,0000.0,0001.34,0002.58,0000.99
2024-03-09 14:17:00,SystemResetWarning,0832.3,5.02,000.00,018.6,017.3,000.0,027.4,020.0,12.5,0000.0,0001.38,0002.67,0000.99
2024-03-09 14:18:00,SystemResetWarning,0832.3,4.99,000.00,018.5,017.0,000.0,027.4,020.0,12.6,0000.0,0001.39,0002.69,0001.00
2024-03-09 14:19:00,SystemResetWarning,0832.2,4.99,000.00,018.5,017.3,000.0,027.4,020.2,12.9,0000.0,0001.39,0002.66,0001.00
2024-03-09 14:20:00,SystemResetWarning,0832.3,5.02,000.00,018.8,018.6,000.0,027.5,020.9,13.0,0000.0,0001.37,0002.62,0001.01
2024-03-09 14:21:00,SystemResetWarning,0832.3,4.98,000.00,019.0,019.4,000.0,027.5,021.3,12.6,0000.0,0001.37,0002.59,0001.02
2024-03-09 14:22:00,SystemResetWarning,0832.3,5.00,000.00,019.0,019.1,000.0,027.5,021.0,12.7,0000.0,0001.40,0002.67,0001.03
2024-03-09 14:23:00,SystemResetWarning,0832.3,5.01,000.00,019.0,018.7,000.0,027.4,020.7,12.9,0000.0,0001.42,0003.06,0001.04
2024-03-09 14:24:00,SystemResetWarning,0832.3,4.99,000.00,018.9,018.3,000.0,027.4,020.4,13.0,0000.0,0001.43,0002.93,0001.04
2024-03-09 14:25:00,SystemResetWarning,0832.2,5.00,000.00,018.8,017.9,000.0,027.3,020.2,12.8,0000.0,0001.41,0002.99,0001.03
2024-03-09 14:26:00,SystemResetWarning,0832.3,4.99,000.00,018.6,017.6,000.0,027.3,020.0,12.7,0000.0,0001.42,0003.03,0001.03
2024-03-09 14:27:00,SystemResetWarning,0832.3,5.00,000.00,018.6,017.3,000.0,027.3,020.0,13.2,0000.0,0001.42,0003.05,0001.03
2024-03-09 14:28:00,SystemResetWarning,0832.3,5.00,000.00,018.5,017.1,000.0,027.4,020.0,13.3,0000.0,0001.38,0002.98,0001.02
2024-03-09 14:29:00,SystemResetWarning,0832.3,5.00,000.00,018.5,017.0,000.0,027.4,020.0,13.6,0000.0,0001.39,0003.00,0001.01
2024-03-09 14:30:00,SystemResetWarning,0832.3,5.02,000.00,018.6,017.8,000.0,027.4,020.5,13.6,0000.0,0001.39,0003.02,0001.00
2024-03-09 14:31:00,SystemResetWarning,0832.3,5.00,000.00,018.8,019.1,000.0,027.5,021.2,13.5,0000.0,0001.38,0003.01,0000.99
2024-03-09 14:32:00,SystemResetWarning,0832.3,4.99,000.00,019.1,019.4,000.0,027.5,021.3,13.1,0000.0,0001.42,0003.08,0000.99
2024-03-09 14:33:00,SystemResetWarning,0832.3,5.00,000.00,019.0,019.1,000.0,027.4,020.9,13.1,0000.0,0001.38,0003.00,0000.98
2024-03-09 14:34:00,SystemResetWarning,0832.3,5.00,000.00,018.9,018.6,000.0,027.4,020.6,13.2,0000.0,0001.35,0002.49,0000.98
2024-03-09 14:35:00,SystemResetWarning,0832.3,4.99,000.00,018.8,018.2,000.0,027.3,020.3,13.5,0000.0,0001.34,0002.13,0000.98
2024-03-09 14:36:00,SystemResetWarning,0832.3,5.00,000.00,018.7,017.8,000.0,027.3,020.1,13.3,0000.0,0001.37,0002.09,0000.99
2024-03-09 14:37:00,SystemResetWarning,0832.3,5.01,000.00,018.6,017.5,000.0,027.3,020.0,13.5,0000.0,0001.40,0002.24,0001.01
2024-03-09 14:38:00,SystemResetWarning,0832.3,5.00,000.00,018.5,017.3,000.0,027.3,020.0,13.4,0000.0,0001.43,0002.42,0001.02
2024-03-09 14:39:00,SystemResetWarning,0832.3,5.00,000.00,018.5,017.1,000.0,027.3,020.0,13.6,0000.0,0001.44,0002.44,0001.03
2024-03-09 14:40:00,SystemResetWarning,0832.3,5.01,000.00,018.5,017.7,000.0,027.4,020.4,13.6,0000.0,0001.41,0003.90,0001.05
2024-03-09 14:41:00,SystemResetWarning,0832.4,4.99,000.00,018.8,019.0,000.0,027.5,021.2,13.7,0000.0,0001.43,0004.08,0001.06
2024-03-09 14:42:00,SystemResetWarning,0832.5,4.99,000.00,019.1,019.5,000.0,027.5,021.4,13.1,0000.0,0001.46,0004.14,0001.08
2024-03-09 14:43:00,SystemResetWarning,0832.4,5.01,000.00,019.1,019.2,000.0,027.4,021.0,13.0,0000.0,0001.49,0004.18,0001.11
2024-03-09 14:44:00,SystemResetWarning,0832.3,5.00,000.00,019.0,018.8,000.0,027.4,020.7,13.0,0000.0,0001.54,0004.33,0001.12
2024-03-09 14:45:00,SystemResetWarning,0832.4,5.00,000.00,018.9,018.4,000.0,027.4,020.5,12.8,0000.0,0001.56,0004.44,0001.14
2024-03-09 14:46:00,SystemResetWarning,0832.3,5.01,000.00,018.8,018.1,000.0,027.3,020.3,12.8,0000.0,0001.54,0004.38,0001.14
2024-03-09 14:47:00,SystemResetWarning,0832.3,5.01,000.00,018.7,017.7,000.0,027.3,020.1,13.1,0000.0,0001.53,0004.33,0001.14
2024-03-09 14:48:00,SystemResetWarning,0832.4,5.00,000.00,018.6,017.5,000.0,027.3,020.0,13.7,0000.0,0001.51,0004.23,0001.12
2024-03-09 14:49:00,SystemResetWarning,0832.4,4.98,000.00,018.5,017.2,000.0,027.3,020.0,13.5,0000.0,0001.46,0003.94,0001.11
2024-03-09 14:50:00,SystemResetWarning,0832.4,5.00,000.00,018.5,017.1,000.0,027.3,020.0,13.5,0000.0,0001.45,0003.90,0001.10
2024-03-09 14:51:00,SystemResetWarning,0832.4,5.01,000.00,018.4,016.9,000.0,027.3,020.0,13.8,0000.0,0001.43,0002.89,0001.09
2024-03-09 14:52:00,SystemResetWarning,0832.4,5.01,000.00,018.5,017.3,000.0,027.4,020.2,13.4,0000.0,0001.44,0002.22,0001.08
2024-03-09 14:53:00,SystemResetWarning,0832.5,5.00,000.00,018.7,018.7,000.0,027.4,021.0,13.7,0000.0,0001.42,0002.21,0001.06
2024-03-09 14:54:00,SystemResetWarning,0832.5,5.00,000.00,019.0,019.6,000.0,027.5,021.5,13.7,0000.0,0001.37,0002.13,0001.03
2024-03-09 14:55:00,SystemResetWarning,0832.5,4.99,000.00,019.1,019.4,000.0,027.4,021.2,13.1,0000.0,0001.35,0002.11,0001.01
2024-03-09 14:56:00,SystemResetWarning,0832.4,4.99,000.00,019.0,019.1,000.0,027.4,020.9,12.8,0000.0,0001.31,0001.96,0000.99
2024-03-09 14:57:00,SystemResetWarning,0832.4,5.01,000.00,019.0,018.8,000.0,027.4,020.6,12.6,0000.0,0001.34,0002.11,0000.98
2024-03-09 14:58:00,SystemResetWarning,0832.4,5.00,000.00,018.9,018.5,000.0,027.4,020.5,13.5,0000.0,0001.31,0002.10,0000.97
2024-03-09 14:59:00,SystemResetWarning,0832.4,5.00,000.00,018.8,018.2,000.0,027.4,020.3,13.6,0000.0,0001.29,0002.03,0000.97
